Location: Peterborough
(44.3091°N, 78.3197°W)
Time: 00:16:23
(UTC-04:00)

Vanguard 1 Rocket - Pass Details

Date: 30 March 2023
Orbit: 655 x 4220 km, 34.3° (Epoch: 02 June)

Event Time Altitude Azimuth Distance (km) Brightness Sun altitude
Rises 01:04:07 0° 259° (WSW) 8,386 12.3 -41.9°
Reaches altitude 10° 01:10:25 10° 256° (WSW) 7,143 11.8 -42.0°
Enters shadow 01:23:08 37° 243° (WSW) 4,470 10.5 -42.0°
Exits shadow 01:45:25 - 107° (ESE) 4,559 10.9 -41.6°
Sets 01:46:13 0° 106° (ESE) 4,769 11.0 -41.6°
